Погода в Козловке

Россия / Воронежская область     51°39′40″N   41°17′49″E
темп.,
°C
ветер,
м/с
пор.,
м/с
влажн.,
%
обл.,
%
осадки,
мм/ч
давл.,
гПа
погр.,
м
11 апреля, вс
вс1100:00+4с41078100 0.0 1025254
03:00+3с5127647 0.0 1026287
06:00+3ссв51374100 0.0 1027307
09:00+7ссв71257100 0.0 1027571
12:00+11ссв81039100 0.0 1027832
15:00+11ссв61047100 0.0 1026884
18:00+9св61387100 0.1 1027712
21:00+7св6118999 0.1 1028407
12 апреля, пн
пн1200:00+6св5996100 0.0 1028248
03:00+5св51097100 0.0 1028218
06:00+5св51196100 0.0 1027235
09:00+11всв587584 0.0 1027338
12:00+19вюв6944100 0.0 1026778
15:00+21вюв793598 0.0 10261253
18:00+18вюв612455 0.0 1026380
21:00+13вюв5135855 0.0 1027239
13 апреля, вт
вт1300:00+11вюв4116859 0.0 1027198
03:00+9вюв41167100 0.0 1028194
06:00+7вюв496876 0.0 1028150
09:00+14юв584831 0.0 1028346
12:00+19юв683456 0.0 1027979
15:00+20юв7930100 0.0 10261781
18:00+18вюв611395 0.0 1025402
21:00+13вюв513515 0.0 1026256
14 апреля, ср
ср1400:00+11вюв410617 0.0 1025170
03:00+9вюв41167100 0.0 1024182
06:00+8вюв4117098 0.0 1024202
09:00+14юв6950100 0.0 1023442
12:00+18юв683511 0.0 10221101
15:00+20юв6829100 0.0 10201827
18:00+17вюв4841100 0.0 1020236
21:00+13вюв4855100 0.0 1020127
15 апреля, чт
чт1500:00+11вюв386494 0.0 1019138
03:00+9вюв357086 0.0 101976
06:00+9вюв3671100 0.0 101893
09:00+15юв465197 0.0 1018358
12:00+19вюв5740100 0.0 10161190
15:00+20юв5736100 0.0 10152127
18:00+18ююз224415 0.0 101424
21:00+14в114580 0.0 101410